SCP
0 0 0 0 0 0 0 0 0 0 0 0 0 0 0 0 0 0 0 0 0 0 -0 -0 -0 -0 -0 -0 -0 -0 -0 -0 -0 -0 -0 -0 0 0 0 0 0 0 0
0 0 0 0 0 0 0 0 0 0 0 0 0 0 0 0 0 0 0 0 0 0 -0 -0 -0 -0 -0 -0 -0 -0 -0 -0 -0 -0 -0 -0 -0 0 0 0 0 0 0
0 0 0 0 0 0 0 0 0 0 0 0 0 0 0 0 0 0 0 0 0 0 -0 -0 0 -0 -0 -0 -0 -0 -0 -0 -0 -0 -0 -0 -0 0 0 0 0 0 0
0 0 0 0 0 0 0 0 0 0 0 0 0 0 0 0 0 0 0 -0 -0 -0 -0 0 0 -0 -0 -0 -0 -0 -0 -0 0 -0 -0 -0 -0 0 0 0 0 0 0
0 0 0 0 0 0 0 0 0 0 0 0 0 0 0 0 0 0 -0 -0 -0 -0 -0 -0 0 0 -0 -0 -0 -0 -0 -0 0 -0 -0 -0 -0 0 0 0 0 0 0
0 0 0 0 0 0 0 0 0 0 0 0 0 0 0 0 0 0 -0 -0 -0 -0 -0 -0 -0 0 -0 -0 -0 -0 -0 0 0 0 -0 -0 0 0 0 0 0 0 0
1 0 0 0 0 0 0 0 0 0 0 0 0 0 0 0 0 -0 -0 -0 -0 -0 -0 -0 -0 -0 0 -0 -0 -0 -0 0 0 0 -0 -0 0 0 0 0 0 0 0
1 1 0 0 0 0 0 0 0 0 0 0 0 0 0 0 0 -0 -0 -0 -0 -0 -0 -0 -0 -0 0 0 0 0 0 0 0 0 -0 -0 0 0 0 0 0 0 0
1 1 1 0 0 0 0 0 0 0 0 0 0 0 0 0 0 -0 -0 -0 -0 -0 -0 -0 -0 -0 0 0 0 0 0 0 0 0 -0 -0 0 0 0 0 0 0 0
1 1 1 0 0 0 0 0 0 0 0 0 0 0 0 0 0 0 -0 -0 -0 -0 -0 -0 -0 0 0 0 0 0 0 0 0 0 0 0 0 0 0 0 0 0 0
1 0 0 0 0 0 0 0 0 0 0 0 0 0 0 0 0 0 0 0 0 0 0 0 0 0 0 0 0 0 0 0 0 0 0 0 0 0 0 0 0 0 0
0 0 0 0 0 0 0 0 0 0 0 0 0 0 0 0 0 0 0 0 0 0 0 0 0 0 0 0 0 0 0 0 0 0 0 0 0 0 0 0 0 0 0
0 0 0 0 0 0 0 0 0 0 0 0 0 0 0 0 0 0 0 0 0 0 0 0 0 0 0 0 0 0 0 0 0 0 0 0 0 0 0 0 0 0 0
0 0 0 0 0 0 0 0 0 0 0 0 0 0 0 0 0 0 0 0 0 0 0 0 0 0 0 0 0 0 0 0 0 0 0 0 0 0 0 0 0 0 0
0 0 0 0 0 0 0 0 0 0 0 0 0 0 0 0 0 0 0 0 0 0 0 0 0 0 0 0 0 0 0 0 0 0 0 0 0 0 0 0 0 0 0
0 0 0 0 0 0 0 0 0 0 0 0 0 0 0 0 0 0 0 0 0 0 0 0 0 0 0 0 0 0 0 0 0 0 0 0 0 0 0 0 0 0 0
0 0 0 0 0 0 0 0 0 0 0 0 0 0 0 0 0 0 0 0 0 0 0 0 0 0 0 0 0 0 0 0 0 0 0 0 0 0 0 0 0 0 0
0 0 0 0 0 0 0 0 0 0 0 0 0 0 0 0 0 0 0 0 0 0 0 0 0 0 0 0 0 0 0 0 0 0 0 0 0 0 0 0 0 0 0
0 0 0 0 0 0 0 0 0 0 0 0 0 0 0 0 0 0 0 0 0 0 0 0 0 0 0 0 0 0 0 0 0 0 0 0 0 0 0 0 0 0 0
0 0 0 0 0 0 0 0 0 0 0 0 0 0 0 0 0 0 0 0 0 0 0 0 0 0 0 0 0 0 0 0 0 0 0 0 0 0 0 0 0 0 0
0 0 0 0 0 0 0 0 0 0 0 0 0 0 0 0 0 0 0 0 0 0 0 0 0 0 0 -0 -0 -0 0 0 0 0 0 0 0 0 0 0 0 0 0
0 0 0 0 0 0 0 0 0 0 0 0 0 0 0 0 0 0 0 0 0 0 0 0 0 0 0 0 0 0 0 0 0 0 0 0 0 0 0 0 0 0 0
0 0 0 0 0 0 0 0 0 0 0 0 0 0 0 0 0 0 0 0 0 0 0 0 0 0 0 0 0 0 0 0 0 0 0 0 0 0 0 0 0 0 0
0 0 0 0 0 0 0 0 0 0 0 0 0 0 0 0 0 0 0 0 0 0 0 0 0 0 0 0 0 0 0 0 0 0 0 0 0 0 0 0 0 0 0
0 0 0 0 0 0 0 0 0 0 0 0 0 0 0 0 0 0 0 0 0 0 0 0 0 0 0 0 0 0 0 0 0 0 0 0 0 0 0 0 0 0 0
0 0 0 0 0 0 0 0 0 0 0 0 0 0 0 0 0 0 0 0 0 0 0 0 0 0 0 0 0 0 0 0 0 0 0 0 0 0 0 0 0 0 0
Wind_Speed
6 7 14 15 16 17 17 17 17 16 16 16 15 15 14 13 13 12 11 11 10 10 10 9 9 9 9 9 9 9 8 8 8 9 9 10 12 13 14 15 15 12 16
9 9 15 15 16 16 16 16 16 16 15 15 14 14 13 12 12 11 10 10 10 9 9 9 9 9 9 9 9 8 8 8 8 9 11 11 12 13 14 15 14 10 16
11 9 12 14 15 15 15 15 15 15 14 14 13 13 12 11 10 10 9 9 9 9 9 9 9 9 9 9 8 8 8 8 9 10 10 7 9 13 14 14 15 16 15
10 8 10 14 14 15 14 14 14 14 14 13 12 12 11 10 9 9 8 8 8 8 8 8 8 8 8 8 8 7 7 8 10 10 6 6 7 12 13 14 15 15 15
8 7 10 16 15 15 14 14 13 13 13 12 11 11 10 9 9 8 7 7 7 7 7 7 7 7 7 7 7 7 7 7 9 8 5 5 5 12 14 14 14 14 14
7 7 10 16 15 14 14 14 13 13 12 11 11 10 9 8 8 7 7 6 6 5 5 6 6 6 6 6 6 6 6 8 8 6 5 5 6 11 14 14 14 14 14
7 6 9 15 15 14 14 14 13 12 12 11 10 9 8 7 7 6 6 6 5 5 4 4 4 5 5 5 5 6 6 9 6 5 5 5 6 11 13 13 14 14 13
8 6 8 14 15 14 14 13 13 12 11 10 9 8 7 6 6 5 5 5 5 5 4 3 3 3 3 3 4 5 6 7 6 5 4 4 6 10 13 13 13 13 13
6 6 5 7 10 13 13 13 12 11 10 9 9 8 7 6 5 5 5 5 5 5 4 4 4 3 2 2 2 3 5 7 5 3 4 3 6 10 12 13 13 13 13
5 5 5 5 5 5 7 11 11 10 9 8 8 7 6 5 4 4 4 4 5 6 5 5 5 4 2 1 1 2 4 5 3 3 2 4 7 10 12 12 13 13 12
7 4 5 5 5 5 4 7 8 9 7 6 4 5 3 1 1 1 2 4 5 5 5 6 5 4 3 2 1 1 3 2 2 2 2 5 8 10 12 12 12 13 13
8 6 4 5 5 5 4 4 3 3 3 3 3 3 2 2 1 1 1 2 3 3 3 3 3 3 1 0 1 1 1 2 2 1 2 7 9 11 12 12 12 13 13
8 7 5 5 5 4 3 4 3 3 3 3 4 3 3 3 2 2 2 2 2 1 1 1 1 0 1 1 0 0 1 1 1 1 3 7 9 11 12 12 13 13 13
7 7 5 5 5 4 4 4 3 3 3 3 3 3 3 2 2 2 2 2 2 1 1 1 1 1 1 0 0 0 0 1 1 1 2 6 8 10 11 12 13 13 13
6 6 6 5 5 5 5 4 4 3 3 3 3 3 3 3 2 2 2 2 2 2 2 1 1 1 1 1 0 0 0 1 1 2 2 4 6 9 11 12 13 13 13
6 6 5 6 6 5 5 4 4 3 3 3 3 3 4 3 2 2 2 2 2 2 2 2 2 2 1 1 1 1 1 0 1 1 2 3 4 7 9 10 12 13 13
7 6 6 6 6 6 6 5 4 3 3 3 2 3 3 3 3 3 3 2 2 2 3 3 3 2 2 2 2 2 1 1 1 1 1 1 2 4 7 9 11 12 13
6 6 6 7 7 7 5 5 4 3 3 3 2 2 3 3 3 3 3 3 2 2 3 3 3 3 3 2 1 2 1 1 1 2 2 2 2 2 4 8 9 10 12
6 6 6 7 7 6 5 4 4 3 3 2 2 2 2 3 3 3 3 3 3 3 3 3 3 2 2 2 1 1 2 2 2 2 2 2 2 3 2 4 8 9 12
5 5 6 7 6 6 5 4 3 3 2 2 1 1 2 2 3 3 3 3 3 3 3 3 3 3 2 2 2 2 2 3 2 3 3 2 1 2 3 3 3 5 10
5 5 6 6 6 5 4 3 3 2 1 1 0 1 1 2 3 3 3 3 3 3 3 3 2 4 4 2 2 3 3 3 4 4 4 3 4 2 1 2 2 2 3
7 6 6 6 6 6 4 3 3 3 2 1 1 1 1 1 2 2 3 3 3 3 4 3 2 2 3 3 2 2 2 3 4 4 4 5 5 4 4 2 1 1 2
9 9 8 7 6 5 5 4 4 3 3 1 1 1 1 2 2 2 3 3 2 2 2 2 2 3 2 2 3 2 2 1 2 3 3 4 5 5 4 4 4 3 1
10 8 7 7 6 5 5 5 5 4 3 4 3 2 2 1 2 2 3 3 2 2 2 2 2 2 2 1 2 2 2 1 1 1 3 3 4 5 5 4 5 4 3
9 8 6 6 5 5 5 6 5 4 3 2 2 2 2 1 2 3 3 3 3 2 2 2 2 2 2 2 1 1 2 2 2 1 1 4 3 3 4 4 3 4 4
7 6 6 6 6 6 6 6 6 6 5 4 3 3 2 1 1 3 4 3 3 3 3 2 2 2 2 2 1 1 1 1 1 1 0 1 2 3 3 3 3 3 3
Wind_Direction
155 155 153 145 137 132 128 125 122 120 119 118 120 121 123 125 126 126 125 123 120 116 110 106 104 101 98 96 93 91 92 96 102 111 117 121 124 125 123 121 120 119 120
144 152 154 148 142 137 133 129 127 126 125 125 125 126 127 128 128 127 125 123 121 116 112 109 106 103 100 97 93 89 91 97 106 112 116 120 124 125 124 124 123 125 124
138 148 152 150 145 139 135 132 131 130 130 129 129 129 129 130 129 128 127 124 121 118 114 113 110 107 103 98 92 88 90 99 105 108 107 107 121 126 128 128 128 127 126
136 140 150 150 146 142 138 136 135 135 133 133 133 133 134 134 134 133 131 127 124 121 118 116 113 110 105 98 89 81 83 98 108 108 100 110 126 131 130 130 129 129 127
129 137 154 151 148 145 142 139 138 138 138 138 139 139 141 142 142 140 139 136 131 127 123 120 115 111 106 97 85 74 76 101 116 110 103 103 116 134 132 133 131 129 129
127 137 153 151 149 146 143 141 140 141 143 144 144 147 149 150 150 150 152 148 142 139 134 128 122 116 108 96 82 70 73 102 106 109 109 117 126 138 137 136 134 132 133
130 136 149 150 148 146 146 145 146 146 147 148 150 152 156 158 159 160 163 161 158 155 148 142 135 127 116 100 84 69 75 106 109 114 119 127 140 144 141 139 137 137 136
133 133 144 150 148 148 148 149 149 150 151 153 155 157 161 165 169 173 177 179 179 177 175 172 160 147 136 112 91 73 74 102 116 123 126 137 151 147 146 143 141 142 140
126 124 127 140 146 150 150 149 150 152 153 156 157 159 164 170 178 186 193 200 200 200 202 203 202 190 178 152 111 89 86 102 114 130 142 145 160 155 153 151 149 148 147
119 117 118 119 123 131 143 151 151 151 153 154 157 161 165 171 183 200 208 221 219 217 220 221 222 217 215 209 163 117 99 101 115 129 139 166 170 167 162 159 158 155 155
141 125 125 122 119 120 133 149 147 148 148 146 148 149 133 73 38 279 241 228 228 228 230 231 231 230 227 242 261 165 107 114 134 147 165 182 181 180 174 169 166 165 164
158 154 139 133 130 129 136 112 97 96 97 90 78 77 72 69 41 48 335 253 240 233 238 239 239 238 224 94 338 16 106 157 169 185 201 199 194 192 187 180 175 173 172
158 160 151 140 134 129 116 110 92 83 81 78 78 80 75 64 43 35 33 18 9 3 28 13 2 68 122 148 163 137 154 165 191 203 217 214 205 202 197 190 186 181 179
158 162 152 143 135 129 118 111 103 98 92 87 82 85 85 74 55 40 41 31 35 38 53 44 39 55 85 137 168 216 191 169 195 205 231 229 215 208 204 197 193 190 188
162 161 154 145 140 133 120 118 111 109 106 101 88 75 84 85 71 55 46 40 36 44 62 66 67 68 64 44 40 206 272 191 207 213 243 252 224 209 207 203 200 199 197
165 159 150 142 137 132 123 120 119 117 111 98 88 84 81 82 77 67 56 47 38 41 63 78 78 80 66 51 26 27 45 22 254 256 257 276 244 212 206 207 205 204 205
165 153 149 141 135 131 128 129 125 122 115 105 99 89 88 85 82 83 73 55 37 46 70 75 70 64 62 52 33 20 35 15 275 270 271 271 273 239 219 215 211 209 212
152 148 152 145 135 131 130 127 125 125 119 113 104 91 88 86 91 85 76 58 45 61 73 79 65 65 52 44 27 5 7 352 326 290 267 255 252 256 245 233 224 219 221
159 152 145 134 138 133 126 118 119 120 117 113 104 95 90 88 88 87 76 60 58 65 61 74 61 67 53 24 1 19 6 3 344 332 313 279 258 249 244 251 243 232 229
146 141 137 134 133 125 114 102 92 92 93 90 100 108 105 95 92 86 76 61 61 69 61 65 71 56 49 6 9 25 13 13 24 27 8 349 302 267 247 245 248 245 239
140 148 155 150 149 141 133 130 127 134 134 129 153 142 122 111 102 91 85 67 62 72 69 76 84 59 33 5 44 19 2 17 39 34 24 31 25 3 316 261 252 247 251
164 173 174 174 167 165 147 138 136 132 140 152 127 131 174 150 138 116 106 94 83 84 69 60 75 80 33 22 69 77 25 3 3 16 20 33 28 29 34 29 350 271 259
179 186 186 187 176 167 141 116 96 81 71 79 145 217 224 189 166 130 127 117 104 98 92 75 78 98 87 32 37 110 124 173 322 339 6 20 19 29 25 22 24 359 306
188 185 185 183 176 167 154 152 150 157 172 199 193 200 216 200 184 164 152 144 132 120 115 99 87 90 105 69 33 40 72 135 113 348 338 356 7 23 16 19 20 15 11
182 182 182 179 181 174 169 168 160 163 175 167 163 190 212 232 216 192 175 166 158 151 145 123 110 103 102 114 90 73 72 61 66 105 334 337 346 351 357 3 9 16 17
183 181 177 181 191 181 175 174 176 175 170 166 181 194 210 222 234 213 189 182 178 174 174 167 152 139 136 128 127 121 128 123 119 119 158 312 319 316 330 343 5 7 9